Weather History for KFDR - October, 2013

Change the Weather History Date:

Wednesday, October 30, 2013

  Actual Average (KLTS) Record (KLTS)
Temperature  
Mean Temperature 74 °F -  
Max Temperature 79 °F 65 °F 86 °F (2010)
Min Temperature 69 °F 44 °F 38 °F (2012)
Cooling Degree Days 9    
Growing Degree Days 24 (Base 50)    
Moisture  
Dew Point 66 °F    
Average Humidity 80    
Maximum Humidity 90    
Minimum Humidity 62    
Precipitation  
Precipitation 0.08 in - - ()
Sea Level Pressure  
Sea Level Pressure 29.78 in    
Wind  
Wind Speed 16 mph (South)    
Max Wind Speed 23 mph    
Max Gust Speed 28 mph    
Visibility 10 miles    
Events Rain , Thunderstorm    
Averages and records for this station are not official NWS values.
T = Trace of Precipitation, MM = Missing Value Source: NWS Daily Summary

Daily Weather History Graph

Daily Weather History Graph

Search for Another Location

Airport or City:

Trip Planner

Search our weather history database for the weather conditions in past years. The results will help you decide how hot, cold, wet, or windy it might be!

Date:

Astronomy

Oct. 30, 2013 Rise Set
Actual Time 7:54 AM CDT 6:44 PM CDT
Civil Twilight 7:28 AM CDT 7:10 PM CDT
Nautical Twilight 6:58 AM CDT 7:39 PM CDT
Astronomical Twilight 6:29 AM CDT 8:09 PM CDT
Moon 3:54 AM CDT (10/30) 4:21 PM CDT (10/30)
Length of Visible Light 11h 41m
Length of Day
10h 49m
Waning Crescent, 17% of the Moon is Illuminated
Oct 30
Waning Crescent
Nov 3
New
Nov 9
First Quarter
Nov 17
Full
Nov 25
Last Quarter

Hourly Weather History & Observations

Time (CDT) Temp. Dew Point Humidity Pressure Visibility Wind Dir Wind Speed Gust Speed Precip Events Conditions
12:53 AM 70.0 °F 66.0 °F 87% 29.86 in 10.0 mi SSE 15.0 mph - N/A   Clear
1:53 AM 70.0 °F 66.0 °F 87% 29.85 in 10.0 mi SSE 13.8 mph - N/A   Clear
2:53 AM 70.0 °F 66.0 °F 87% 29.85 in 10.0 mi South 13.8 mph - N/A   Partly Cloudy
3:53 AM 71.1 °F 66.0 °F 84% 29.83 in 10.0 mi SSE 17.3 mph - N/A   Overcast
4:19 AM 71.6 °F 66.2 °F 83% 29.88 in 10.0 mi SSE 15.0 mph - N/A   Overcast
4:53 AM 71.1 °F 66.0 °F 84% 29.83 in 10.0 mi SSE 16.1 mph - N/A   Overcast
5:21 AM 69.8 °F 66.2 °F 88% 29.87 in 10.0 mi SSE 15.0 mph - 0.02 in Rain Light Rain
5:53 AM 70.0 °F 66.0 °F 87% 29.83 in 10.0 mi SSE 16.1 mph - 0.04 in Rain Light Rain
6:26 AM 69.8 °F 66.2 °F 88% 29.88 in 10.0 mi SSE 17.3 mph - 0.02 in   Overcast
6:53 AM 70.0 °F 66.0 °F 87% 29.83 in 10.0 mi SSE 17.3 mph - 0.02 in   Overcast
7:06 AM 69.8 °F 66.2 °F 88% 29.87 in 10.0 mi SSE 16.1 mph - N/A   Overcast
7:53 AM 69.1 °F 66.0 °F 90% 29.82 in 10.0 mi SSE 13.8 mph - N/A   Overcast
8:53 AM 70.0 °F 66.0 °F 87% 29.83 in 10.0 mi South 11.5 mph - 0.00 in   Partly Cloudy
9:53 AM 71.1 °F 66.0 °F 84% 29.83 in 10.0 mi South 16.1 mph - N/A   Overcast
10:53 AM 73.0 °F 66.0 °F 79% 29.82 in 10.0 mi South 17.3 mph - N/A   Overcast
11:53 AM 75.9 °F 66.0 °F 71% 29.81 in 10.0 mi South 21.9 mph - N/A   Overcast
12:53 PM 77.0 °F 66.0 °F 69% 29.79 in 10.0 mi South 19.6 mph 27.6 mph N/A   Mostly Cloudy
1:53 PM 78.1 °F 64.9 °F 64% 29.77 in 10.0 mi South 18.4 mph - N/A   Mostly Cloudy
2:53 PM 79.0 °F 64.9 °F 62% 29.73 in 10.0 mi South 19.6 mph 27.6 mph N/A   Partly Cloudy
3:53 PM 78.1 °F 64.9 °F 64% 29.72 in 10.0 mi SSW 20.7 mph - N/A   Clear
4:53 PM 78.1 °F 64.9 °F 64% 29.70 in 10.0 mi SSW 23.0 mph - N/A   Partly Cloudy
5:53 PM 77.0 °F 64.9 °F 66% 29.70 in 10.0 mi SSW 18.4 mph - N/A   Scattered Clouds
6:53 PM 73.9 °F 64.9 °F 73% 29.68 in 10.0 mi SSW 8.1 mph - N/A   Clear
7:53 PM 72.0 °F 64.9 °F 78% 29.68 in 10.0 mi SSE 16.1 mph - N/A   Partly Cloudy
8:53 PM 72.0 °F 66.0 °F 81% 29.68 in 10.0 mi SSE 20.7 mph - 0.00 in   Mostly Cloudy
9:53 PM 71.1 °F 66.0 °F 84% 29.69 in 10.0 mi South 17.3 mph - 0.00 in Rain Light Rain
10:53 PM 70.0 °F 66.0 °F 87% 29.67 in 10.0 mi SSE 18.4 mph - 0.01 in Rain Light Rain
11:51 PM 69.8 °F 66.2 °F 88% 29.71 in 10.0 mi South 12.7 mph - 0.01 in Thunderstorm Overcast
11:53 PM 69.1 °F 66.0 °F 90% 29.67 in 10.0 mi South 13.8 mph - 0.01 in Thunderstorm Overcast